Погода в Злочеве

Польша     51°24′52″N   18°36′36″E
темп.,
°C
ветер,
м/с
пор.,
м/с
влажн.,
%
обл.,
%
осадки,
мм/ч
давл.,
гПа
погр.,
м
26 февраля, пт
пт2601:00+7зюз47830 0.0 1027103
04:00+6з34900 0.0 102653
07:00+6зюз23938 0.0 102623
10:00+9з2385100 0.0 1025192
13:00+8ссз4689100 0.1 1025390
16:00+7сз61186100 0.3 1025551
19:00+6зсз51081100 0.4 1027552
22:00+5зсз51183100 0.0 1028443
27 февраля, сб
сб2701:00+3зсз5139273 0.0 1029395
04:00+2зсз613931 0.0 1028395
07:00+2зсз6119235 0.0 1029525
10:00+4сз7108299 0.0 1031792
13:00+6сз797495 0.0 1032931
16:00+5сз6974100 0.1 1032926
19:00+4зсз61184100 0.1 1034488
22:00+2зсз5109375 0.0 1035289
28 февраля, вс
вс2801:000зсз379640 0.0 1036156
04:000зсз35953 0.0 1035135
07:000зсз359032 0.0 1035157
10:00+4зсз357090 0.0 1035291
13:00+7зсз355346 0.0 1035598
16:00+7зсз46580 0.0 1033706
19:00+4зсз35770 0.0 103499
22:00+3зсз36920 0.0 1034117
1 марта, пн
пн101:00+2ссз239719 0.0 103556
04:00+1с229730 0.0 103526
07:000с229618 0.0 103629
10:00+5св23785 0.0 1036338
13:00+8ссв12633 0.0 1037559
16:00+8св23620 0.0 1036673
19:00+5всв23780 0.0 103729
22:00+4юв22850 0.0 103722
2 марта, вт
вт201:00+3юв23890 0.0 103822
04:00+2ююв23900 0.0 103728
07:00+1ююв34900 0.0 103676
10:00+5ююв35670 0.0 1037293
13:00+10ю45500 0.0 1035586
16:00+10ю47520 0.0 1033569
19:00+6ю46670 0.0 1033116
22:00+5ююз49720 0.0 1033201